Tracking 26321 objects as of 28-Nov-2022
HD Live streaming from Space Station
objects crossing your sky now

NOAA 16 DEB

Track NOAA 16 DEB now!
10-day predictions


NORAD ID: 41095
Int'l Code: 2000-055BE
Perigee: 728.8 km
Apogee: 802.4 km
Inclination: 99.0 °
Period: 100.0 minutes
Semi major axis: 7136 km
RCS: Unknown
Launch date: September 21, 2000
Source: United States (US)
Launch site: AIR FORCE WESTERN TEST RANGE (AFWTR)

Note: This is SATELLITE DEBRIS
aabbcc
Your satellite tracking list
Your tracking list is empty




NASA's NSSDC Master Catalog

Two Line Element Set (TLE):
1 41095U 00055BE  22330.72385111  .00009704  00000-0  30437-2 0  9996
2 41095  98.9623 153.0405 0051512 251.1791 108.3804 14.40010207364732
Source of the keplerian elements: AFSPC